Tracking 35035 objects as of 16-Aug-2026
HD Live streaming from Space Station
objects crossing your sky now

O3B FM4

Track O3B FM4 now!
10-day predictions
O3B FM4 is classified as:


NORAD ID: 39189
Int'l Code: 2013-031B
Launch date: June 25, 2013
Source: O3b Networks (O3B)
Launch site: FRENCH GUIANA (FRGUI)

O3b satellites will reach customers across the planet between 45 degrees north and south latitude. O3b offers the benefits of fiber-optic lines without the costs to maintain them.
Your satellite tracking list
Your tracking list is empty




NASA's NSSDC Master Catalog

Two Line Element Set (TLE):
1 39189U 13031B   26228.12657311 -.00000026  00000-0  00000-0 0  9993
2 39189   0.0403 350.0753 0004700 131.6152 238.3524  5.00115702240040
Source of the keplerian elements: AFSPC